Wind_Speed
32 32 32 32 32 32 32 32 32 32 32 32 33 34 34 34 34 34 34 34 35 35 35 35 34 34 34 33 33 33 33 32 32 32 32 32 31 31 31 31 31 31 30
34 34 34 34 34 34 34 34 34 35 34 35 35 36 36 36 37 37 37 37 37 37 37 37 38 37 37 36 36 36 35 35 35 34 33 33 33 33 33 34 33 33 32
36 36 36 36 36 37 37 37 37 37 37 37 37 38 39 39 39 40 40 39 39 39 39 39 39 39 39 39 39 39 38 37 37 37 36 35 36 35 35 35 35 35 34
38 38 38 38 39 39 39 39 38 38 39 40 40 41 41 41 41 42 42 42 42 41 41 41 41 41 41 41 41 41 40 40 40 40 39 38 38 38 38 38 38 37 37
40 40 40 41 41 41 41 41 41 40 41 41 42 42 43 43 43 43 43 43 43 44 44 43 43 44 43 43 43 43 42 42 43 42 42 41 41 41 41 41 41 40 40
42 42 43 43 43 43 43 42 42 42 42 43 43 44 44 45 45 45 45 45 45 45 45 46 46 46 46 46 46 46 45 45 45 45 45 45 44 44 44 44 43 43 43
44 44 44 44 44 44 44 44 44 44 44 45 45 46 46 46 47 47 47 47 48 48 47 48 48 48 49 49 49 49 48 48 48 47 47 47 47 46 46 46 46 46 46
46 45 46 46 46 46 46 46 46 46 46 46 46 47 47 48 48 49 49 49 50 50 50 50 51 51 51 51 52 52 51 51 51 50 50 50 50 49 49 49 48 48 48
47 47 47 47 48 48 48 48 48 48 48 48 48 48 49 49 50 50 50 51 52 52 53 53 53 53 54 54 54 54 54 53 53 53 52 52 52 51 52 52 52 51 51
49 49 49 49 49 50 50 50 50 50 50 50 50 50 51 51 51 51 51 52 53 53 54 54 55 56 56 56 56 56 56 55 55 54 54 54 54 54 54 54 54 55 54
50 50 51 51 51 51 52 52 52 51 52 52 52 52 52 52 53 53 53 54 54 55 55 55 56 56 57 58 58 58 58 58 57 56 56 56 57 57 57 57 56 57 57
51 52 53 52 52 52 53 53 53 53 53 54 54 54 54 54 54 55 56 56 56 56 56 56 56 56 57 58 58 59 60 60 59 58 59 59 59 60 60 60 60 59 59
51 52 52 53 53 53 53 54 54 54 54 54 54 54 55 55 56 57 57 57 57 56 57 57 57 57 57 58 59 60 61 61 61 61 61 61 62 62 62 62 62 62 62
51 52 52 52 53 53 54 54 54 54 54 55 55 55 56 56 57 57 57 57 57 57 58 58 58 58 58 58 60 61 62 62 63 63 63 63 63 63 64 64 64 64 64
51 51 51 51 52 53 53 54 54 54 55 56 56 56 56 56 56 57 57 57 57 57 57 58 58 59 59 59 60 62 62 63 63 64 64 63 64 64 64 65 65 66 66
51 51 51 51 52 52 53 53 54 55 55 56 56 56 56 56 56 57 58 58 58 58 57 57 58 59 60 60 61 62 63 63 63 63 64 64 64 65 65 66 66 66 66
51 51 51 51 52 52 53 53 53 54 55 55 55 55 56 57 57 57 57 57 57 58 58 58 59 60 60 60 61 62 63 63 63 64 64 64 64 64 65 64 65 65 66
50 51 51 51 51 52 52 53 53 53 54 54 54 54 55 56 56 56 56 56 57 58 58 58 58 60 60 61 61 61 62 63 63 63 63 63 63 64 64 64 64 64 65
51 51 51 51 51 52 52 53 53 54 54 53 53 54 54 54 54 54 55 56 56 57 58 58 57 58 59 60 60 60 61 62 62 63 62 62 63 63 63 64 63 64 65
49 50 50 50 51 51 51 52 52 52 52 52 52 52 53 53 53 54 54 54 55 55 55 56 56 57 58 59 60 60 60 61 61 62 61 61 62 63 63 64 64 63 63
47 48 48 49 50 51 51 50 50 50 50 50 50 50 51 51 52 52 53 53 53 54 54 55 55 56 56 56 57 58 58 58 59 60 61 61 62 63 63 64 64 63 62
46 47 48 48 49 49 49 49 49 49 48 48 49 49 50 50 51 51 51 52 52 53 53 53 54 54 53 53 54 55 55 55 56 57 59 59 60 61 61 62 63 63 62
45 45 46 46 46 47 47 47 47 47 46 47 48 48 49 49 50 50 50 50 50 50 50 50 50 50 50 51 52 52 52 52 53 54 56 56 57 58 58 59 60 60 61
44 44 44 44 44 44 44 45 45 44 45 46 47 47 47 47 47 47 47 47 47 47 47 48 48 48 48 49 50 50 50 50 50 51 53 53 54 54 55 56 57 58 59
43 43 42 42 41 41 42 42 43 43 44 44 44 45 44 44 44 44 44 45 45 46 46 46 47 47 47 47 47 47 47 48 47 48 50 51 52 52 52 53 54 56 57
41 41 41 41 41 40 40 41 41 42 41 41 41 41 41 41 42 42 43 43 44 44 44 44 44 44 44 44 44 45 45 45 46 46 47 48 49 50 50 51 52 53 54
Wind_Direction
253 254 255 255 256 257 257 257 257 257 258 258 258 257 256 256 256 256 255 255 256 256 256 257 257 257 258 258 259 259 259 259 260 259 259 259 259 259 259 259 259 258 259
255 255 256 256 257 257 257 257 258 258 259 259 259 259 258 258 257 257 257 256 256 257 257 257 257 257 258 259 259 259 259 260 259 259 259 260 261 261 261 259 260 259 260
257 257 257 256 257 258 259 259 259 260 260 261 261 261 261 260 259 259 258 257 257 257 258 258 258 258 258 258 259 260 260 260 259 259 260 260 260 261 262 261 260 260 260
257 257 257 257 259 260 261 260 260 261 261 262 263 262 261 261 260 259 258 258 258 258 258 259 259 259 259 259 259 259 260 260 260 260 260 261 261 261 262 262 262 261 261
258 258 258 258 259 260 260 260 261 261 262 263 263 262 262 261 260 260 259 259 258 258 259 259 260 259 259 260 260 259 260 260 261 261 261 261 261 262 262 262 262 262 262
258 259 259 259 260 260 260 260 261 262 263 264 263 263 263 262 262 261 260 260 260 259 259 260 260 260 260 260 260 261 261 262 262 262 261 261 261 262 262 262 262 262 262
260 261 261 260 259 259 259 260 261 262 263 264 264 264 264 263 263 262 261 261 260 260 260 260 260 260 261 261 262 262 263 263 263 263 262 262 261 262 262 262 262 262 262
260 261 261 261 260 261 261 260 261 262 263 264 264 264 264 264 263 263 262 261 261 261 261 261 261 261 261 262 262 262 263 263 263 263 263 263 262 262 262 262 262 262 262
260 260 260 261 261 262 261 261 261 263 264 264 264 264 264 264 264 263 263 262 261 261 262 262 262 262 262 262 262 262 262 263 263 262 263 263 263 263 262 262 262 262 262
261 261 261 262 262 262 261 262 262 263 264 264 264 265 265 265 264 263 263 263 262 262 263 263 263 263 262 262 262 262 262 262 262 262 263 263 263 263 263 263 262 262 262
262 262 262 262 262 262 263 263 263 264 264 264 265 265 265 266 265 264 263 264 263 263 264 264 263 263 262 262 262 261 261 262 262 263 263 263 263 263 263 263 263 263 263
263 263 264 263 263 264 264 264 264 265 265 266 266 266 266 266 266 265 264 265 264 264 264 264 263 263 263 263 262 262 262 262 263 263 263 263 263 263 264 263 263 263 263
263 264 264 264 265 265 265 265 265 265 266 266 266 267 267 267 267 266 266 265 264 263 263 264 263 263 263 263 263 263 263 263 263 264 264 264 264 264 264 264 264 264 263
263 263 264 265 265 265 266 265 266 266 266 266 267 268 269 268 267 266 266 266 265 264 263 264 263 263 264 264 264 264 264 264 264 265 265 266 265 264 264 264 264 263 263
262 262 263 264 264 265 265 265 266 266 266 266 267 268 268 267 267 267 266 266 266 265 263 264 264 264 264 265 265 265 265 265 265 265 266 266 266 265 264 264 264 263 263
261 262 263 264 265 265 265 265 265 266 267 267 267 267 267 267 267 268 267 267 266 265 265 265 265 265 266 266 267 267 266 265 266 266 266 266 265 265 264 264 264 263 263
262 262 263 264 264 264 265 265 265 267 268 268 268 268 268 267 267 268 267 267 267 266 266 266 267 266 266 267 267 267 266 266 266 266 266 266 266 266 265 266 265 264 264
261 263 264 264 264 264 264 265 266 266 267 267 267 267 268 268 268 267 266 266 267 267 267 268 268 268 267 267 268 267 266 266 267 266 266 266 265 266 266 266 266 265 265
261 263 263 263 264 264 264 265 266 267 267 267 266 267 267 268 267 267 267 267 267 267 268 268 268 269 269 269 268 267 267 267 267 266 266 266 266 266 266 266 266 266 265
261 262 263 263 264 264 264 265 266 267 267 267 267 267 267 267 267 267 268 268 268 268 269 269 270 270 270 270 269 268 268 267 266 266 266 266 266 266 266 266 266 266 265
260 261 262 263 264 264 265 265 266 267 267 267 267 267 267 267 268 269 269 269 270 269 270 270 270 270 270 270 270 269 269 267 266 266 266 266 266 266 266 266 266 266 266
260 261 262 263 263 264 265 265 266 266 267 267 268 268 268 269 270 270 270 270 270 270 271 271 271 271 271 271 271 270 269 269 268 267 267 267 267 266 266 266 266 266 267
259 260 262 263 263 264 265 265 266 266 267 267 268 269 270 271 270 271 270 270 270 270 271 271 271 272 272 271 271 271 270 270 269 268 267 267 267 267 266 266 266 266 266
259 261 262 263 263 264 264 265 265 267 268 268 269 270 271 271 270 269 269 269 269 270 270 271 272 272 272 272 272 271 271 271 271 270 270 269 268 267 267 267 267 266 266
260 261 262 262 263 264 265 265 265 266 268 269 270 271 271 271 270 269 268 269 270 270 270 271 272 273 273 272 272 271 271 272 272 272 271 270 269 267 267 268 267 267 267
260 261 261 263 264 265 265 265 266 267 268 269 270 270 270 270 270 269 269 270 270 271 271 271 272 272 273 273 272 272 272 273 273 272 272 271 269 267 266 267 267 267 268
Height
5768 5770 5771 5772 5773 5774 5775 5776 5777 5778 5779 5780 5781 5781 5783 5784 5785 5786 5787 5788 5790 5791 5792 5794 5795 5796 5797 5798 5799 5800 5801 5802 5803 5804 5805 5806 5807 5808 5809 5810 5810 5811 5812
5761 5762 5763 5764 5765 5767 5768 5769 5769 5770 5771 5772 5773 5774 5774 5775 5776 5778 5779 5780 5781 5783 5784 5785 5787 5788 5789 5790 5791 5792 5794 5795 5796 5797 5798 5799 5800 5801 5801 5802 5803 5804 5805
5752 5754 5755 5756 5757 5758 5759 5760 5761 5762 5763 5763 5764 5765 5766 5766 5767 5768 5770 5771 5773 5774 5775 5776 5778 5779 5781 5782 5783 5784 5785 5786 5787 5788 5790 5791 5792 5793 5793 5795 5796 5797 5798
5743 5745 5746 5747 5748 5749 5750 5751 5752 5753 5753 5754 5755 5755 5756 5757 5757 5758 5760 5761 5763 5764 5765 5767 5768 5770 5771 5772 5774 5775 5776 5777 5778 5780 5781 5782 5783 5784 5785 5786 5787 5788 5789
5733 5735 5736 5737 5738 5740 5741 5741 5742 5743 5743 5744 5744 5745 5745 5746 5747 5748 5749 5751 5752 5754 5755 5757 5758 5759 5761 5762 5764 5765 5766 5767 5769 5770 5771 5772 5773 5774 5776 5777 5778 5779 5780
5723 5724 5726 5727 5728 5729 5730 5731 5732 5732 5733 5733 5733 5733 5734 5734 5735 5736 5738 5739 5741 5742 5744 5746 5747 5748 5750 5751 5753 5754 5756 5757 5758 5759 5760 5762 5763 5764 5765 5767 5768 5769 5770
5712 5713 5714 5716 5717 5718 5719 5720 5720 5721 5722 5722 5722 5722 5722 5723 5723 5724 5726 5727 5729 5730 5732 5734 5735 5737 5738 5739 5741 5742 5744 5745 5746 5747 5749 5750 5752 5753 5754 5756 5757 5758 5759
5700 5702 5703 5704 5705 5706 5707 5708 5709 5709 5709 5709 5709 5710 5710 5711 5711 5712 5713 5715 5716 5718 5719 5721 5722 5724 5725 5727 5728 5729 5731 5732 5733 5735 5736 5738 5739 5741 5742 5744 5745 5746 5748
5688 5690 5691 5692 5693 5694 5695 5695 5696 5696 5697 5697 5697 5697 5698 5698 5699 5700 5701 5702 5703 5705 5706 5707 5709 5710 5712 5713 5714 5716 5717 5719 5720 5721 5723 5724 5726 5728 5729 5731 5732 5734 5735
5676 5677 5678 5679 5680 5681 5682 5682 5683 5683 5684 5684 5684 5684 5684 5685 5686 5687 5688 5688 5689 5690 5692 5693 5694 5696 5697 5699 5700 5702 5703 5704 5706 5707 5709 5710 5712 5714 5715 5716 5718 5720 5721
5662 5663 5664 5665 5666 5667 5668 5669 5669 5670 5670 5670 5670 5670 5670 5670 5671 5672 5674 5674 5675 5676 5677 5678 5679 5681 5682 5683 5685 5687 5688 5689 5691 5693 5694 5696 5697 5699 5700 5702 5703 5705 5707
5649 5649 5650 5651 5652 5653 5654 5655 5655 5655 5656 5656 5656 5656 5656 5656 5656 5657 5658 5659 5660 5661 5662 5663 5664 5665 5666 5668 5669 5671 5672 5674 5675 5677 5678 5680 5681 5683 5684 5686 5688 5689 5691
5635 5636 5637 5637 5638 5639 5640 5640 5641 5641 5641 5641 5641 5641 5641 5641 5641 5641 5642 5643 5644 5646 5646 5647 5648 5649 5650 5651 5653 5654 5655 5657 5659 5660 5662 5663 5664 5666 5667 5669 5671 5672 5674
5621 5622 5623 5623 5624 5624 5625 5626 5626 5627 5627 5627 5626 5626 5626 5626 5625 5625 5626 5627 5628 5630 5631 5631 5631 5632 5633 5634 5636 5637 5638 5640 5641 5643 5644 5645 5647 5648 5649 5651 5653 5654 5656
5608 5608 5609 5609 5610 5610 5610 5611 5612 5612 5612 5612 5612 5611 5611 5610 5610 5610 5610 5611 5612 5613 5615 5615 5615 5616 5616 5617 5618 5620 5621 5622 5624 5625 5626 5627 5629 5630 5631 5632 5634 5635 5637
5594 5595 5595 5596 5596 5596 5596 5596 5597 5597 5597 5596 5596 5596 5595 5595 5595 5594 5595 5595 5595 5596 5599 5600 5599 5599 5599 5600 5601 5602 5603 5604 5606 5607 5608 5609 5610 5611 5612 5613 5614 5616 5618
5581 5581 5582 5582 5582 5582 5582 5582 5582 5582 5582 5581 5581 5580 5580 5580 5580 5579 5579 5579 5579 5580 5581 5583 5582 5582 5582 5583 5583 5584 5585 5586 5587 5588 5589 5590 5591 5592 5593 5594 5595 5597 5598
5567 5567 5567 5567 5567 5567 5567 5567 5567 5567 5566 5566 5566 5565 5565 5565 5564 5564 5564 5563 5564 5564 5564 5566 5566 5565 5565 5566 5566 5567 5567 5568 5569 5570 5571 5571 5572 5573 5574 5575 5576 5578 5579
5552 5553 5553 5553 5553 5553 5553 5552 5552 5552 5551 5551 5551 5551 5550 5550 5549 5549 5548 5548 5548 5548 5548 5549 5550 5549 5549 5549 5549 5550 5550 5550 5550 5551 5552 5553 5554 5555 5556 5557 5557 5559 5560
5538 5539 5539 5539 5539 5539 5538 5538 5537 5537 5537 5536 5536 5536 5535 5535 5534 5534 5533 5533 5533 5533 5533 5533 5534 5534 5533 5532 5532 5533 5533 5533 5533 5533 5534 5535 5536 5537 5538 5539 5540 5541 5542
5524 5525 5525 5525 5525 5525 5525 5524 5524 5523 5523 5522 5522 5522 5521 5520 5520 5519 5519 5519 5518 5518 5518 5518 5518 5518 5517 5517 5516 5516 5516 5516 5516 5516 5517 5518 5518 5520 5519 5520 5521 5522 5523
5511 5511 5511 5511 5511 5511 5511 5510 5510 5510 5509 5509 5508 5508 5507 5507 5506 5505 5504 5504 5503 5503 5502 5502 5502 5502 5501 5501 5500 5499 5499 5500 5501 5501 5499 5500 5500 5501 5502 5502 5503 5503 5504
5497 5498 5498 5498 5498 5498 5497 5496 5496 5496 5496 5495 5495 5494 5494 5493 5492 5491 5490 5489 5489 5488 5487 5487 5487 5486 5486 5486 5485 5485 5484 5483 5484 5484 5482 5484 5483 5484 5484 5484 5485 5486 5486
5484 5485 5485 5485 5485 5485 5484 5483 5483 5482 5482 5482 5482 5481 5480 5479 5478 5477 5476 5476 5475 5475 5474 5473 5473 5472 5471 5470 5470 5470 5469 5469 5468 5467 5467 5468 5468 5467 5468 5468 5468 5468 5468
5471 5472 5472 5472 5472 5472 5471 5471 5470 5470 5470 5469 5469 5468 5467 5466 5465 5464 5464 5464 5463 5462 5460 5459 5458 5457 5457 5456 5455 5455 5455 5454 5454 5454 5452 5452 5452 5452 5452 5452 5452 5451 5450
5459 5459 5460 5460 5460 5460 5459 5459 5458 5458 5458 5457 5456 5455 5455 5454 5452 5451 5451 5450 5450 5449 5448 5446 5445 5444 5444 5443 5442 5442 5441 5440 5440 5440 5438 5437 5437 5436 5438 5438 5437 5435 5434